Flag for Switzerland Weather past 2 weeks in Emmen, Lucerne, Switzerland

Now
32 °F

Chilly.


Feels Like: 29 °F
Forecast: 41 / 66 °F
Wind: 3 mph from West

Location: Giswil


UV Index: 0 (Low)

Visibility: N/A


Pressure: 29.84 "Hg

Humidity: 97%

Dew point: 31 °F

Location of EmmenLocation

Historic Weather in Emmen

°F

Emmen temperature yesterday

Maximum temperature yesterday: 47 °F (at 6:00 PM)
Minimum temperature yesterday: 35 °F (at 12:00 AM)
Average temperature yesterday: 41 °F

Past Weeks' High & Low Weather Summary

 TemperatureHumidityPressure
High69 °F (Apr 11, 5:00 PM)100% (Apr 7, 4:00 AM)30.36 "Hg (Apr 7, 4:00 AM)
Low27 °F (Apr 17, 7:00 AM)32% (Apr 10, 5:00 PM)29.81 "Hg (Apr 19, 5:00 PM)
Average49 °F73%30.11 "Hg
* Reported Apr 5 4:00 AM — Apr 20 4:00 AM, Emmen, Weather by CustomWeather, © 2014

Note: Actual official high and low records may vary slightly from our data, if they occured in-between our weather recording intervals... More about our weather records

Advertising

Historic Weather Conditions — Data for Previous 24 hours

 ConditionsComfort  
Time TempWeatherWind HumidityBarometerVisibility
4:00 AM
Apr 20
32 °FChilly.3 mph97%29.84 "HgN/A
3:00 AM32 °FChilly.2 mph96%29.83 "HgN/A
2:00 AM33 °FChilly.1 mph96%29.83 "HgN/A
1:00 AM33 °FChilly.3 mph95%29.84 "HgN/A
12:00 AM38 °FChilly.3 mph91%29.82 "HgN/A
11:00 PM
Apr 19
43 °FQuite cool.6 mph76%29.81 "HgN/A
10:00 PM44 °FQuite cool.5 mph75%29.83 "HgN/A
9:00 PM44 °FQuite cool.2 mph77%29.84 "HgN/A
8:00 PM45 °FCool.3 mph78%29.83 "HgN/A
7:00 PM47 °FCool.1 mph67%29.81 "HgN/A
6:00 PM47 °FCool.1 mph65%29.81 "HgN/A
5:00 PM47 °FCool.2 mph64%29.81 "HgN/A
4:00 PM46 °FCool.2 mph66%29.81 "HgN/A
3:00 PM46 °FCool.1 mph67%29.82 "HgN/A
2:00 PM44 °FQuite cool.2 mph70%29.84 "HgN/A
1:00 PM44 °FQuite cool.6 mph73%29.84 "HgN/A
12:00 PM43 °FQuite cool.5 mph78%29.84 "HgN/A
11:00 AM41 °FQuite cool.2 mph82%29.85 "HgN/A
10:00 AM39 °FChilly.3 mph90%29.86 "HgN/A
9:00 AM38 °FChilly.1 mph91%29.87 "HgN/A
8:00 AM38 °FChilly.3 mph90%29.87 "HgN/A
7:00 AM37 °FChilly.5 mph91%29.88 "HgN/A
6:00 AM36 °FChilly.2 mph95%29.89 "HgN/A
5:00 AM37 °FChilly.2 mph94%29.90 "HgN/A
Weather by CustomWeather, © 2014

See weather overview